station,date_time,longitude_east,latitude_north,depth,sw_sal,sw_sal_result_value_qualifier,sea_water_temperature,sea_water_temperature_result_value_qualifier,sea_water_pressure,sea_water_pressure_result_value_qualifier,KD_PAR,KD_PAR_result_value_qualifier
CH3-3,2017-01-28T23:00:00Z,-79.12,54.04,7,21.09,,-1.01,,, NC,, NC
CH3-3,2017-01-28T23:15:00Z,-79.12,54.04,7,21.10,,-1.01,,, NC,, NC
CH3-3,2017-01-28T23:30:00Z,-79.12,54.04,7,20.95,,-0.97,,, NC,, NC
CH3-3,2017-01-28T23:45:00Z,-79.12,54.04,7,20.95,,-1.00,,, NC,, NC
CH3-3,2017-01-29T00:00:00Z,-79.12,54.04,7,20.88,,-1.00,,, NC,, NC
CH3-3,2017-01-29T00:15:00Z,-79.12,54.04,7,20.81,,-1.07,,, NC,, NC
CH3-3,2017-01-29T00:30:00Z,-79.12,54.04,7,20.87,,-1.11,,, NC,, NC
CH3-3,2017-01-29T00:45:00Z,-79.12,54.04,7,20.95,,-1.11,,, NC,, NC
CH3-3,2017-01-29T01:00:00Z,-79.12,54.04,7,20.97,,-1.12,,, NC,, NC
CH3-3,2017-01-29T01:15:00Z,-79.12,54.04,7,20.42,,-1.12,,, NC,, NC
CH3-3,2017-01-29T01:30:00Z,-79.12,54.04,7,20.79,,-1.14,,, NC,, NC
CH3-3,2017-01-29T01:45:00Z,-79.12,54.04,7,20.92,,-1.13,,, NC,, NC
CH3-3,2017-01-29T02:00:00Z,-79.12,54.04,7,21.28,,-1.16,,, NC,, NC
CH3-3,2017-01-29T02:15:00Z,-79.12,54.04,7,21.36,,-1.19,,, NC,, NC
CH3-3,2017-01-29T02:30:00Z,-79.12,54.04,7,21.07,,-1.14,,, NC,, NC
CH3-3,2017-01-29T02:45:00Z,-79.12,54.04,7,21.17,,-1.16,,, NC,, NC
CH3-3,2017-01-29T03:00:00Z,-79.12,54.04,7,21.49,,-1.20,,, NC,, NC
CH3-3,2017-01-29T03:15:00Z,-79.12,54.04,7,21.38,,-1.20,,, NC,, NC
CH3-3,2017-01-29T03:30:00Z,-79.12,54.04,7,21.22,,-1.18,,, NC,, NC
CH3-3,2017-01-29T03:45:00Z,-79.12,54.04,7,21.37,,-1.19,,, NC,, NC
CH3-3,2017-01-29T04:00:00Z,-79.12,54.04,7,21.40,,-1.20,,, NC,, NC
CH3-3,2017-01-29T04:15:00Z,-79.12,54.04,7,21.48,,-1.20,,, NC,, NC
CH3-3,2017-01-29T04:30:00Z,-79.12,54.04,7,21.49,,-1.19,,, NC,, NC
CH3-3,2017-01-29T04:45:00Z,-79.12,54.04,7,21.52,,-1.16,,, NC,, NC
CH3-3,2017-01-29T05:00:00Z,-79.12,54.04,7,21.48,,-1.14,,, NC,, NC
CH3-3,2017-01-29T05:15:00Z,-79.12,54.04,7,21.52,,-1.15,,, NC,, NC
CH3-3,2017-01-29T05:30:00Z,-79.12,54.04,7,21.57,,-1.18,,, NC,, NC
CH3-3,2017-01-29T05:45:00Z,-79.12,54.04,7,21.62,,-1.21,,, NC,, NC
CH3-3,2017-01-29T06:00:00Z,-79.12,54.04,7,21.55,,-1.18,,, NC,, NC
CH3-3,2017-01-29T06:15:00Z,-79.12,54.04,7,21.55,,-1.18,,, NC,, NC
CH3-3,2017-01-29T06:30:00Z,-79.12,54.04,7,21.42,,-1.18,,, NC,, NC
CH3-3,2017-01-29T06:45:00Z,-79.12,54.04,7,21.52,,-1.19,,, NC,, NC
CH3-3,2017-01-29T07:00:00Z,-79.12,54.04,7,21.57,,-1.19,,, NC,, NC
CH3-3,2017-01-29T07:15:00Z,-79.12,54.04,7,21.63,,-1.20,,, NC,, NC
CH3-3,2017-01-29T07:30:00Z,-79.12,54.04,7,21.64,,-1.20,,, NC,, NC
CH3-3,2017-01-29T07:45:00Z,-79.12,54.04,7,21.69,,-1.19,,, NC,, NC
CH3-3,2017-01-29T08:00:00Z,-79.12,54.04,7,21.69,,-1.19,,, NC,, NC
CH3-3,2017-01-29T08:15:00Z,-79.12,54.04,7,21.68,,-1.19,,, NC,, NC
CH3-3,2017-01-29T08:30:00Z,-79.12,54.04,7,21.70,,-1.19,,, NC,, NC
CH3-3,2017-01-29T08:45:00Z,-79.12,54.04,7,21.70,,-1.19,,, NC,, NC
CH3-3,2017-01-29T09:00:00Z,-79.12,54.04,7,21.66,,-1.20,,, NC,, NC
CH3-3,2017-01-29T09:15:00Z,-79.12,54.04,7,21.61,,-1.20,,, NC,, NC
CH3-3,2017-01-29T09:30:00Z,-79.12,54.04,7,21.50,,-1.19,,, NC,, NC
CH3-3,2017-01-29T09:45:00Z,-79.12,54.04,7,21.47,,-1.18,,, NC,, NC
CH3-3,2017-01-29T10:00:00Z,-79.12,54.04,7,21.40,,-1.16,,, NC,, NC
CH3-3,2017-01-29T10:15:00Z,-79.12,54.04,7,21.38,,-1.16,,, NC,, NC
CH3-3,2017-01-29T10:30:00Z,-79.12,54.04,7,21.53,,-1.18,,, NC,, NC
CH3-3,2017-01-29T10:45:00Z,-79.12,54.04,7,21.37,,-1.13,,, NC,, NC
CH3-3,2017-01-29T11:00:00Z,-79.12,54.04,7,21.43,,-1.15,,, NC,, NC
CH3-3,2017-01-29T11:15:00Z,-79.12,54.04,7,21.50,,-1.16,,, NC,, NC
CH3-3,2017-01-29T11:30:00Z,-79.12,54.04,7,21.54,,-1.15,,, NC,, NC
CH3-3,2017-01-29T11:45:00Z,-79.12,54.04,7,21.42,,-1.13,,, NC,, NC
CH3-3,2017-01-29T12:00:00Z,-79.12,54.04,7,21.28,,-1.14,,, NC,, NC
CH3-3,2017-01-29T12:15:00Z,-79.12,54.04,7,21.20,,-1.12,,, NC,, NC
CH3-3,2017-01-29T12:30:00Z,-79.12,54.04,7,21.17,,-1.12,,, NC,, NC
CH3-3,2017-01-29T12:45:00Z,-79.12,54.04,7,21.07,,-1.12,,, NC,, NC
CH3-3,2017-01-29T13:00:00Z,-79.12,54.04,7,21.10,,-1.15,,, NC,, NC
CH3-3,2017-01-29T13:15:00Z,-79.12,54.04,7,21.29,,-1.13,,, NC,, NC
CH3-3,2017-01-29T13:30:00Z,-79.12,54.04,7,21.19,,-1.18,,, NC,, NC
CH3-3,2017-01-29T13:45:00Z,-79.12,54.04,7,21.32,,-1.13,,, NC,, NC
CH3-3,2017-01-29T14:00:00Z,-79.12,54.04,7,21.36,,-1.23,,, NC,, NC
CH3-3,2017-01-29T14:15:00Z,-79.12,54.04,7,21.48,,-1.24,,, NC,, NC
CH3-3,2017-01-29T14:30:00Z,-79.12,54.04,7,21.59,,-1.21,,, NC,, NC
CH3-3,2017-01-29T14:45:00Z,-79.12,54.04,7,21.58,,-1.23,,, NC,, NC
CH3-3,2017-01-29T15:00:00Z,-79.12,54.04,7,21.61,,-1.23,,, NC,, NC
CH3-3,2017-01-29T15:15:00Z,-79.12,54.04,7,21.56,,-1.24,,, NC,, NC
CH3-3,2017-01-29T15:30:00Z,-79.12,54.04,7,21.59,,-1.24,,, NC,, NC
CH3-3,2017-01-29T15:45:00Z,-79.12,54.04,7,21.60,,-1.24,,, NC,, NC
CH3-3,2017-01-29T16:00:00Z,-79.12,54.04,7,21.59,,-1.23,,, NC,, NC
CH3-3,2017-01-29T16:15:00Z,-79.12,54.04,7,21.61,,-1.26,,, NC,, NC
CH3-3,2017-01-29T16:30:00Z,-79.12,54.04,7,21.60,,-1.24,,, NC,, NC
CH3-3,2017-01-29T16:45:00Z,-79.12,54.04,7,21.63,,-1.24,,, NC,, NC
CH3-3,2017-01-29T17:00:00Z,-79.12,54.04,7,21.65,,-1.23,,, NC,, NC
CH3-3,2017-01-29T17:15:00Z,-79.12,54.04,7,21.63,,-1.23,,, NC,, NC
CH3-3,2017-01-29T17:30:00Z,-79.12,54.04,7,21.61,,-1.24,,, NC,, NC
CH3-3,2017-01-29T17:45:00Z,-79.12,54.04,7,21.60,,-1.26,,, NC,, NC
CH3-3,2017-01-29T18:00:00Z,-79.12,54.04,7,21.58,,-1.23,,, NC,, NC
CH3-3,2017-01-29T18:15:00Z,-79.12,54.04,7,21.55,,-1.23,,, NC,, NC
CH3-3,2017-01-29T18:30:00Z,-79.12,54.04,7,21.54,,-1.24,,, NC,, NC
CH3-3,2017-01-29T18:45:00Z,-79.12,54.04,7,21.59,,-1.23,,, NC,, NC
CH3-3,2017-01-29T19:00:00Z,-79.12,54.04,7,21.62,,-1.23,,, NC,, NC
CH3-3,2017-01-29T19:15:00Z,-79.12,54.04,7,21.67,,-1.23,,, NC,, NC
CH3-3,2017-01-29T19:30:00Z,-79.12,54.04,7,21.74,,-1.22,,, NC,, NC
CH3-3,2017-01-29T19:45:00Z,-79.12,54.04,7,21.74,,-1.21,,, NC,, NC
CH3-3,2017-01-29T20:00:00Z,-79.12,54.04,7,21.77,,-1.22,,, NC,, NC
CH3-3,2017-01-29T20:15:00Z,-79.12,54.04,7,21.77,,-1.22,,, NC,, NC
CH3-3,2017-01-29T20:30:00Z,-79.12,54.04,7,21.75,,-1.22,,, NC,, NC
CH3-3,2017-01-29T20:45:00Z,-79.12,54.04,7,21.78,,-1.22,,, NC,, NC
CH3-3,2017-01-29T21:00:00Z,-79.12,54.04,7,21.80,,-1.22,,, NC,, NC
CH3-3,2017-01-29T21:15:00Z,-79.12,54.04,7,21.80,,-1.21,,, NC,, NC
CH3-3,2017-01-29T21:30:00Z,-79.12,54.04,7,21.81,,-1.22,,, NC,, NC
CH3-3,2017-01-29T21:45:00Z,-79.12,54.04,7,21.81,,-1.22,,, NC,, NC
CH3-3,2017-01-29T22:00:00Z,-79.12,54.04,7,21.76,,-1.22,,, NC,, NC
CH3-3,2017-01-29T22:15:00Z,-79.12,54.04,7,21.75,,-1.21,,, NC,, NC
CH3-3,2017-01-29T22:30:00Z,-79.12,54.04,7,21.70,,-1.21,,, NC,, NC
CH3-3,2017-01-29T22:45:00Z,-79.12,54.04,7,21.68,,-1.21,,, NC,, NC
CH3-3,2017-01-29T23:00:00Z,-79.12,54.04,7,21.68,,-1.21,,, NC,, NC
CH3-3,2017-01-29T23:15:00Z,-79.12,54.04,7,21.63,,-1.21,,, NC,, NC
CH3-3,2017-01-29T23:30:00Z,-79.12,54.04,7,21.65,,-1.21,,, NC,, NC
CH3-3,2017-01-29T23:45:00Z,-79.12,54.04,7,21.65,,-1.21,,, NC,, NC
CH3-3,2017-01-30T00:00:00Z,-79.12,54.04,7,21.61,,-1.21,,, NC,, NC
CH3-3,2017-01-30T00:15:00Z,-79.12,54.04,7,21.63,,-1.21,,, NC,, NC
CH3-3,2017-01-30T00:30:00Z,-79.12,54.04,7,21.56,,-1.21,,, NC,, NC
CH3-3,2017-01-30T00:45:00Z,-79.12,54.04,7,21.57,,-1.23,,, NC,, NC
CH3-3,2017-01-30T01:00:00Z,-79.12,54.04,7,21.47,,-1.19,,, NC,, NC
CH3-3,2017-01-30T01:15:00Z,-79.12,54.04,7,21.55,,-1.19,,, NC,, NC
CH3-3,2017-01-30T01:30:00Z,-79.12,54.04,7,21.41,,-1.18,,, NC,, NC
CH3-3,2017-01-30T01:45:00Z,-79.12,54.04,7,21.26,,-1.18,,, NC,, NC
CH3-3,2017-01-30T02:00:00Z,-79.12,54.04,7,21.25,,-1.21,,, NC,, NC
CH3-3,2017-01-30T02:15:00Z,-79.12,54.04,7,21.46,,-1.21,,, NC,, NC
CH3-3,2017-01-30T02:30:00Z,-79.12,54.04,7,21.56,,-1.23,,, NC,, NC
CH3-3,2017-01-30T02:45:00Z,-79.12,54.04,7,21.55,,-1.23,,, NC,, NC
CH3-3,2017-01-30T03:00:00Z,-79.12,54.04,7,21.45,,-1.22,,, NC,, NC
CH3-3,2017-01-30T03:15:00Z,-79.12,54.04,7,21.51,,-1.23,,, NC,, NC
CH3-3,2017-01-30T03:30:00Z,-79.12,54.04,7,21.45,,-1.22,,, NC,, NC
CH3-3,2017-01-30T03:45:00Z,-79.12,54.04,7,21.51,,-1.23,,, NC,, NC
CH3-3,2017-01-30T04:00:00Z,-79.12,54.04,7,21.67,,-1.22,,, NC,, NC
CH3-3,2017-01-30T04:15:00Z,-79.12,54.04,7,21.78,,-1.22,,, NC,, NC
CH3-3,2017-01-30T04:30:00Z,-79.12,54.04,7,21.83,,-1.22,,, NC,, NC
CH3-3,2017-01-30T04:45:00Z,-79.12,54.04,7,21.86,,-1.22,,, NC,, NC
CH3-3,2017-01-30T05:00:00Z,-79.12,54.04,7,21.88,,-1.22,,, NC,, NC
CH3-3,2017-01-30T05:15:00Z,-79.12,54.04,7,21.87,,-1.21,,, NC,, NC
CH3-3,2017-01-30T05:30:00Z,-79.12,54.04,7,21.85,,-1.21,,, NC,, NC
CH3-3,2017-01-30T05:45:00Z,-79.12,54.04,7,21.85,,-1.21,,, NC,, NC
CH3-3,2017-01-30T06:00:00Z,-79.12,54.04,7,21.80,,-1.21,,, NC,, NC
CH3-3,2017-01-30T06:15:00Z,-79.12,54.04,7,21.88,,-1.21,,, NC,, NC
CH3-3,2017-01-30T06:30:00Z,-79.12,54.04,7,21.83,,-1.21,,, NC,, NC
CH3-3,2017-01-30T06:45:00Z,-79.12,54.04,7,21.74,,-1.20,,, NC,, NC
CH3-3,2017-01-30T07:00:00Z,-79.12,54.04,7,21.77,,-1.20,,, NC,, NC
CH3-3,2017-01-30T07:15:00Z,-79.12,54.04,7,21.75,,-1.20,,, NC,, NC
CH3-3,2017-01-30T07:30:00Z,-79.12,54.04,7,21.86,,-1.21,,, NC,, NC
CH3-3,2017-01-30T07:45:00Z,-79.12,54.04,7,21.86,,-1.21,,, NC,, NC
CH3-3,2017-01-30T08:00:00Z,-79.12,54.04,7,21.92,,-1.21,,, NC,, NC
CH3-3,2017-01-30T08:15:00Z,-79.12,54.04,7,21.89,,-1.21,,, NC,, NC
CH3-3,2017-01-30T08:30:00Z,-79.12,54.04,7,21.91,,-1.19,,, NC,, NC
CH3-3,2017-01-30T08:45:00Z,-79.12,54.04,7,21.94,,-1.16,,, NC,, NC
CH3-3,2017-01-30T09:00:00Z,-79.12,54.04,7,21.95,,-1.14,,, NC,, NC
CH3-3,2017-01-30T09:15:00Z,-79.12,54.04,7,21.92,,-1.16,,, NC,, NC
CH3-3,2017-01-30T09:30:00Z,-79.12,54.04,7,21.92,,-1.20,,, NC,, NC
CH3-3,2017-01-30T09:45:00Z,-79.12,54.04,7,21.92,,-1.20,,, NC,, NC
CH3-3,2017-01-30T10:00:00Z,-79.12,54.04,7,21.91,,-1.19,,, NC,, NC
CH3-3,2017-01-30T10:15:00Z,-79.12,54.04,7,21.91,,-1.22,,, NC,, NC
CH3-3,2017-01-30T10:30:00Z,-79.12,54.04,7,21.82,,-1.21,,, NC,, NC
CH3-3,2017-01-30T10:45:00Z,-79.12,54.04,7,21.88,,-1.21,,, NC,, NC
CH3-3,2017-01-30T11:00:00Z,-79.12,54.04,7,21.88,,-1.21,,, NC,, NC
CH3-3,2017-01-30T11:15:00Z,-79.12,54.04,7,21.77,,-1.21,,, NC,, NC
CH3-3,2017-01-30T11:30:00Z,-79.12,54.04,7,21.91,,-1.21,,, NC,, NC
CH3-3,2017-01-30T11:45:00Z,-79.12,54.04,7,21.85,,-1.20,,, NC,, NC
CH3-3,2017-01-30T12:00:00Z,-79.12,54.04,7,21.69,,-1.19,,, NC,, NC
CH3-3,2017-01-30T12:15:00Z,-79.12,54.04,7,21.35,,-1.20,,, NC,, NC
CH3-3,2017-01-30T12:30:00Z,-79.12,54.04,7,21.39,,-1.21,,, NC,, NC
CH3-3,2017-01-30T12:45:00Z,-79.12,54.04,7,21.47,,-1.21,,, NC,, NC
CH3-3,2017-01-30T13:00:00Z,-79.12,54.04,7,21.54,,-1.20,,, NC,, NC
CH3-3,2017-01-30T13:15:00Z,-79.12,54.04,7,21.59,,-1.20,,, NC,, NC
CH3-3,2017-01-30T13:30:00Z,-79.12,54.04,7,21.62,,-1.21,,, NC,, NC
CH3-3,2017-01-30T13:45:00Z,-79.12,54.04,7,21.68,,-1.21,,, NC,, NC
CH3-3,2017-01-30T14:00:00Z,-79.12,54.04,7,21.76,,-1.21,,, NC,, NC
CH3-3,2017-01-30T14:15:00Z,-79.12,54.04,7,21.79,,-1.21,,, NC,, NC
CH3-3,2017-01-30T14:30:00Z,-79.12,54.04,7,21.76,,-1.21,,, NC,, NC
CH3-3,2017-01-30T14:45:00Z,-79.12,54.04,7,21.76,,-1.21,,, NC,, NC
CH3-3,2017-01-30T15:00:00Z,-79.12,54.04,7,21.74,,-1.21,,, NC,, NC
CH3-3,2017-01-30T15:15:00Z,-79.12,54.04,7,21.69,,-1.21,,, NC,, NC
CH3-3,2017-01-30T15:30:00Z,-79.12,54.04,7,21.71,,-1.21,,, NC,, NC
CH3-3,2017-01-30T15:45:00Z,-79.12,54.04,7,21.72,,-1.21,,, NC,, NC
CH3-3,2017-01-30T16:00:00Z,-79.12,54.04,7,21.74,,-1.21,,, NC,, NC
CH3-3,2017-01-30T16:15:00Z,-79.12,54.04,7,21.66,,-1.21,,, NC,, NC
CH3-3,2017-01-30T16:30:00Z,-79.12,54.04,7,21.66,,-1.21,,, NC,, NC
CH3-3,2017-01-30T16:45:00Z,-79.12,54.04,7,21.64,,-1.21,,, NC,, NC
CH3-3,2017-01-30T17:00:00Z,-79.12,54.04,7,21.53,,-1.20,,, NC,, NC
CH3-3,2017-01-30T17:15:00Z,-79.12,54.04,7,21.73,,-1.21,,, NC,, NC
CH3-3,2017-01-30T17:30:00Z,-79.12,54.04,7,21.83,,-1.21,,, NC,, NC
CH3-3,2017-01-30T17:45:00Z,-79.12,54.04,7,21.82,,-1.21,,, NC,, NC
CH3-3,2017-01-30T18:00:00Z,-79.12,54.04,7,21.80,,-1.21,,, NC,, NC
CH3-3,2017-01-30T18:15:00Z,-79.12,54.04,7,21.70,,-1.21,,, NC,, NC
CH3-3,2017-01-30T18:30:00Z,-79.12,54.04,7,21.70,,-1.21,,, NC,, NC
CH3-3,2017-01-30T18:45:00Z,-79.12,54.04,7,21.73,,-1.21,,, NC,, NC
CH3-3,2017-01-30T19:00:00Z,-79.12,54.04,7,21.78,,-1.21,,, NC,, NC
CH3-3,2017-01-30T19:15:00Z,-79.12,54.04,7,21.76,,-1.21,,, NC,, NC
CH3-3,2017-01-30T19:30:00Z,-79.12,54.04,7,21.78,,-1.21,,, NC,, NC
CH3-3,2017-01-30T19:45:00Z,-79.12,54.04,7,21.83,,-1.20,,, NC,, NC
CH3-3,2017-01-30T20:00:00Z,-79.12,54.04,7,21.90,,-1.19,,, NC,, NC
CH3-3,2017-01-30T20:15:00Z,-79.12,54.04,7,21.92,,-1.18,,, NC,, NC
CH3-3,2017-01-30T20:30:00Z,-79.12,54.04,7,21.98,,-1.18,,, NC,, NC
CH3-3,2017-01-30T20:45:00Z,-79.12,54.04,7,21.96,,-1.18,,, NC,, NC
CH3-3,2017-01-30T21:00:00Z,-79.12,54.04,7,21.98,,-1.18,,, NC,, NC
CH3-3,2017-01-30T21:15:00Z,-79.12,54.04,7,21.98,,-1.18,,, NC,, NC
CH3-3,2017-01-30T21:30:00Z,-79.12,54.04,7,22.01,,-1.18,,, NC,, NC
CH3-3,2017-01-30T21:45:00Z,-79.12,54.04,7,22.00,,-1.16,,, NC,, NC
CH3-3,2017-01-30T22:00:00Z,-79.12,54.04,7,22.00,,-1.16,,, NC,, NC
CH3-3,2017-01-30T22:15:00Z,-79.12,54.04,7,22.00,,-1.16,,, NC,, NC
CH3-3,2017-01-30T22:30:00Z,-79.12,54.04,7,22.04,,-1.18,,, NC,, NC
CH3-3,2017-01-30T22:45:00Z,-79.12,54.04,7,22.02,,-1.18,,, NC,, NC
CH3-3,2017-01-30T23:00:00Z,-79.12,54.04,7,22.00,,-1.16,,, NC,, NC
CH3-3,2017-01-30T23:15:00Z,-79.12,54.04,7,22.00,,-1.18,,, NC,, NC
CH3-3,2017-01-30T23:30:00Z,-79.12,54.04,7,21.94,,-1.19,,, NC,, NC
CH3-3,2017-01-30T23:45:00Z,-79.12,54.04,7,21.81,,-1.21,,, NC,, NC
CH3-3,2017-01-31T00:00:00Z,-79.12,54.04,7,21.72,,-1.21,,, NC,, NC
CH3-3,2017-01-31T00:15:00Z,-79.12,54.04,7,21.73,,-1.21,,, NC,, NC
CH3-3,2017-01-31T00:30:00Z,-79.12,54.04,7,21.78,,-1.21,,, NC,, NC
CH3-3,2017-01-31T00:45:00Z,-79.12,54.04,7,21.75,,-1.21,,, NC,, NC
CH3-3,2017-01-31T01:00:00Z,-79.12,54.04,7,21.67,,-1.21,,, NC,, NC
CH3-3,2017-01-31T01:15:00Z,-79.12,54.04,7,21.54,,-1.21,,, NC,, NC
CH3-3,2017-01-31T01:30:00Z,-79.12,54.04,7,21.49,,-1.21,,, NC,, NC
CH3-3,2017-01-31T01:45:00Z,-79.12,54.04,7,21.71,,-1.21,,, NC,, NC
CH3-3,2017-01-31T02:00:00Z,-79.12,54.04,7,21.65,,-1.21,,, NC,, NC
CH3-3,2017-01-31T02:15:00Z,-79.12,54.04,7,21.71,,-1.21,,, NC,, NC
CH3-3,2017-01-31T02:30:00Z,-79.12,54.04,7,21.74,,-1.21,,, NC,, NC
CH3-3,2017-01-31T02:45:00Z,-79.12,54.04,7,21.81,,-1.21,,, NC,, NC
CH3-3,2017-01-31T03:00:00Z,-79.12,54.04,7,21.79,,-1.21,,, NC,, NC
CH3-3,2017-01-31T03:15:00Z,-79.12,54.04,7,21.76,,-1.21,,, NC,, NC
CH3-3,2017-01-31T03:30:00Z,-79.12,54.04,7,21.76,,-1.21,,, NC,, NC
CH3-3,2017-01-31T03:45:00Z,-79.12,54.04,7,21.71,,-1.21,,, NC,, NC
CH3-3,2017-01-31T04:00:00Z,-79.12,54.04,7,21.79,,-1.21,,, NC,, NC
CH3-3,2017-01-31T04:15:00Z,-79.12,54.04,7,21.84,,-1.21,,, NC,, NC
CH3-3,2017-01-31T04:30:00Z,-79.12,54.04,7,21.85,,-1.22,,, NC,, NC
CH3-3,2017-01-31T04:45:00Z,-79.12,54.04,7,21.87,,-1.21,,, NC,, NC
CH3-3,2017-01-31T05:00:00Z,-79.12,54.04,7,21.86,,-1.22,,, NC,, NC
CH3-3,2017-01-31T05:15:00Z,-79.12,54.04,7,21.90,,-1.21,,, NC,, NC
CH3-3,2017-01-31T05:30:00Z,-79.12,54.04,7,21.93,,-1.21,,, NC,, NC
CH3-3,2017-01-31T05:45:00Z,-79.12,54.04,7,21.95,,-1.20,,, NC,, NC
CH3-3,2017-01-31T06:00:00Z,-79.12,54.04,7,21.92,,-1.20,,, NC,, NC
CH3-3,2017-01-31T06:15:00Z,-79.12,54.04,7,21.93,,-1.21,,, NC,, NC
CH3-3,2017-01-31T06:30:00Z,-79.12,54.04,7,21.93,,-1.21,,, NC,, NC
CH3-3,2017-01-31T06:45:00Z,-79.12,54.04,7,21.96,,-1.21,,, NC,, NC
CH3-3,2017-01-31T07:00:00Z,-79.12,54.04,7,21.91,,-1.21,,, NC,, NC
CH3-3,2017-01-31T07:15:00Z,-79.12,54.04,7,21.91,,-1.21,,, NC,, NC
CH3-3,2017-01-31T07:30:00Z,-79.12,54.04,7,21.93,,-1.20,,, NC,, NC
CH3-3,2017-01-31T07:45:00Z,-79.12,54.04,7,21.93,,-1.21,,, NC,, NC
CH3-3,2017-01-31T08:00:00Z,-79.12,54.04,7,21.97,,-1.18,,, NC,, NC
CH3-3,2017-01-31T08:15:00Z,-79.12,54.04,7,22.00,,-1.19,,, NC,, NC
CH3-3,2017-01-31T08:30:00Z,-79.12,54.04,7,21.98,,-1.19,,, NC,, NC
CH3-3,2017-01-31T08:45:00Z,-79.12,54.04,7,22.02,,-1.20,,, NC,, NC
CH3-3,2017-01-31T09:00:00Z,-79.12,54.04,7,22.10,,-1.21,,, NC,, NC
CH3-3,2017-01-31T09:15:00Z,-79.12,54.04,7,22.08,,-1.21,,, NC,, NC
CH3-3,2017-01-31T09:30:00Z,-79.12,54.04,7,22.05,,-1.21,,, NC,, NC
CH3-3,2017-01-31T09:45:00Z,-79.12,54.04,7,22.05,,-1.21,,, NC,, NC
CH3-3,2017-01-31T10:00:00Z,-79.12,54.04,7,22.07,,-1.21,,, NC,, NC
CH3-3,2017-01-31T10:15:00Z,-79.12,54.04,7,22.08,,-1.21,,, NC,, NC
CH3-3,2017-01-31T10:30:00Z,-79.12,54.04,7,22.08,,-1.21,,, NC,, NC
CH3-3,2017-01-31T10:45:00Z,-79.12,54.04,7,22.08,,-1.21,,, NC,, NC
CH3-3,2017-01-31T11:00:00Z,-79.12,54.04,7,22.08,,-1.21,,, NC,, NC
CH3-3,2017-01-31T11:15:00Z,-79.12,54.04,7,22.05,,-1.21,,, NC,, NC
CH3-3,2017-01-31T11:30:00Z,-79.12,54.04,7,22.04,,-1.20,,, NC,, NC
CH3-3,2017-01-31T11:45:00Z,-79.12,54.04,7,21.98,,-1.19,,, NC,, NC
CH3-3,2017-01-31T12:00:00Z,-79.12,54.04,7,21.94,,-1.20,,, NC,, NC
CH3-3,2017-01-31T12:15:00Z,-79.12,54.04,7,21.86,,-1.20,,, NC,, NC
CH3-3,2017-01-31T12:30:00Z,-79.12,54.04,7,21.79,,-1.21,,, NC,, NC
CH3-3,2017-01-31T12:45:00Z,-79.12,54.04,7,21.69,,-1.21,,, NC,, NC
CH3-3,2017-01-31T13:00:00Z,-79.12,54.04,7,21.61,,-1.21,,, NC,, NC
CH3-3,2017-01-31T13:15:00Z,-79.12,54.04,7,21.64,,-1.21,,, NC,, NC
CH3-3,2017-01-31T13:30:00Z,-79.12,54.04,7,21.64,,-1.21,,, NC,, NC
CH3-3,2017-01-31T13:45:00Z,-79.12,54.04,7,21.59,,-1.21,,, NC,, NC
CH3-3,2017-01-31T14:00:00Z,-79.12,54.04,7,21.59,,-1.21,,, NC,, NC
CH3-3,2017-01-31T14:15:00Z,-79.12,54.04,7,21.64,,-1.21,,, NC,, NC
CH3-3,2017-01-31T14:30:00Z,-79.12,54.04,7,21.61,,-1.20,,, NC,, NC
CH3-3,2017-01-31T14:45:00Z,-79.12,54.04,7,21.56,,-1.20,,, NC,, NC
CH3-3,2017-01-31T15:00:00Z,-79.12,54.04,7,21.59,,-1.20,,, NC,, NC
CH3-3,2017-01-31T15:15:00Z,-79.12,54.04,7,21.70,,-1.21,,, NC,, NC
CH3-3,2017-01-31T15:30:00Z,-79.12,54.04,7,21.70,,-1.21,,, NC,, NC
CH3-3,2017-01-31T15:45:00Z,-79.12,54.04,7,21.75,,-1.21,,, NC,, NC
CH3-3,2017-01-31T16:00:00Z,-79.12,54.04,7,21.75,,-1.21,,, NC,, NC
CH3-3,2017-01-31T16:15:00Z,-79.12,54.04,7,21.73,,-1.21,,, NC,, NC
CH3-3,2017-01-31T16:30:00Z,-79.12,54.04,7,21.81,,-1.21,,, NC,, NC
CH3-3,2017-01-31T16:45:00Z,-79.12,54.04,7,21.78,,-1.21,,, NC,, NC
CH3-3,2017-01-31T17:00:00Z,-79.12,54.04,7,21.78,,-1.21,,, NC,, NC
CH3-3,2017-01-31T17:15:00Z,-79.12,54.04,7,21.83,,-1.21,,, NC,, NC
CH3-3,2017-01-31T17:30:00Z,-79.12,54.04,7,21.76,,-1.21,,, NC,, NC
CH3-3,2017-01-31T17:45:00Z,-79.12,54.04,7,21.81,,-1.21,,, NC,, NC
CH3-3,2017-01-31T18:00:00Z,-79.12,54.04,7,21.87,,-1.22,,, NC,, NC
CH3-3,2017-01-31T18:15:00Z,-79.12,54.04,7,21.87,,-1.21,,, NC,, NC
CH3-3,2017-01-31T18:30:00Z,-79.12,54.04,7,21.92,,-1.21,,, NC,, NC
CH3-3,2017-01-31T18:45:00Z,-79.12,54.04,7,21.95,,-1.21,,, NC,, NC
CH3-3,2017-01-31T19:00:00Z,-79.12,54.04,7,21.95,,-1.21,,, NC,, NC
CH3-3,2017-01-31T19:15:00Z,-79.12,54.04,7,21.95,,-1.21,,, NC,, NC
CH3-3,2017-01-31T19:30:00Z,-79.12,54.04,7,21.95,,-1.21,,, NC,, NC
CH3-3,2017-01-31T19:45:00Z,-79.12,54.04,7,21.94,,-1.21,,, NC,, NC
CH3-3,2017-01-31T20:00:00Z,-79.12,54.04,7,21.97,,-1.20,,, NC,, NC
CH3-3,2017-01-31T20:15:00Z,-79.12,54.04,7,21.99,,-1.19,,, NC,, NC
CH3-3,2017-01-31T20:30:00Z,-79.12,54.04,7,21.99,,-1.19,,, NC,, NC
CH3-3,2017-01-31T20:45:00Z,-79.12,54.04,7,21.99,,-1.19,,, NC,, NC
CH3-3,2017-01-31T21:00:00Z,-79.12,54.04,7,21.96,,-1.19,,, NC,, NC
CH3-3,2017-01-31T21:15:00Z,-79.12,54.04,7,21.99,,-1.19,,, NC,, NC
CH3-3,2017-01-31T21:30:00Z,-79.12,54.04,7,22.00,,-1.19,,, NC,, NC
CH3-3,2017-01-31T21:45:00Z,-79.12,54.04,7,22.02,,-1.19,,, NC,, NC
CH3-3,2017-01-31T22:00:00Z,-79.12,54.04,7,22.05,,-1.19,,, NC,, NC
CH3-3,2017-01-31T22:15:00Z,-79.12,54.04,7,22.02,,-1.19,,, NC,, NC
CH3-3,2017-01-31T22:30:00Z,-79.12,54.04,7,21.98,,-1.20,,, NC,, NC
CH3-3,2017-01-31T22:45:00Z,-79.12,54.04,7,22.00,,-1.19,,, NC,, NC
CH3-3,2017-01-31T23:00:00Z,-79.12,54.04,7,22.06,,-1.20,,, NC,, NC
CH3-3,2017-01-31T23:15:00Z,-79.12,54.04,7,22.01,,-1.18,,, NC,, NC
CH3-3,2017-01-31T23:30:00Z,-79.12,54.04,7,22.02,,-1.19,,, NC,, NC
CH3-3,2017-01-31T23:45:00Z,-79.12,54.04,7,21.99,,-1.21,,, NC,, NC
CH3-3,2017-02-01T00:00:00Z,-79.12,54.04,7,21.96,,-1.21,,, NC,, NC
CH3-3,2017-02-01T00:15:00Z,-79.12,54.04,7,21.91,,-1.21,,, NC,, NC
CH3-3,2017-02-01T00:30:00Z,-79.12,54.04,7,21.86,,-1.21,,, NC,, NC
CH3-3,2017-02-01T00:45:00Z,-79.12,54.04,7,21.86,,-1.21,,, NC,, NC
CH3-3,2017-02-01T01:00:00Z,-79.12,54.04,7,21.80,,-1.20,,, NC,, NC
CH3-3,2017-02-01T01:15:00Z,-79.12,54.04,7,21.80,,-1.20,,, NC,, NC
CH3-3,2017-02-01T01:30:00Z,-79.12,54.04,7,21.75,,-1.20,,, NC,, NC
CH3-3,2017-02-01T01:45:00Z,-79.12,54.04,7,21.74,,-1.19,,, NC,, NC
CH3-3,2017-02-01T02:00:00Z,-79.12,54.04,7,21.85,,-1.20,,, NC,, NC
CH3-3,2017-02-01T02:15:00Z,-79.12,54.04,7,21.85,,-1.20,,, NC,, NC
CH3-3,2017-02-01T02:30:00Z,-79.12,54.04,7,21.75,,-1.20,,, NC,, NC
CH3-3,2017-02-01T02:45:00Z,-79.12,54.04,7,21.73,,-1.20,,, NC,, NC
CH3-3,2017-02-01T03:00:00Z,-79.12,54.04,7,21.73,,-1.20,,, NC,, NC
CH3-3,2017-02-01T03:15:00Z,-79.12,54.04,7,21.62,,-1.19,,, NC,, NC
CH3-3,2017-02-01T03:30:00Z,-79.12,54.04,7,21.68,,-1.20,,, NC,, NC
CH3-3,2017-02-01T03:45:00Z,-79.12,54.04,7,21.76,,-1.21,,, NC,, NC
CH3-3,2017-02-01T04:00:00Z,-79.12,54.04,7,21.84,,-1.20,,, NC,, NC
CH3-3,2017-02-01T04:15:00Z,-79.12,54.04,7,21.79,,-1.21,,, NC,, NC
CH3-3,2017-02-01T04:30:00Z,-79.12,54.04,7,21.84,,-1.21,,, NC,, NC
CH3-3,2017-02-01T04:45:00Z,-79.12,54.04,7,21.81,,-1.21,,, NC,, NC
CH3-3,2017-02-01T05:00:00Z,-79.12,54.04,7,21.92,,-1.21,,, NC,, NC
CH3-3,2017-02-01T05:15:00Z,-79.12,54.04,7,21.92,,-1.20,,, NC,, NC
CH3-3,2017-02-01T05:30:00Z,-79.12,54.04,7,21.92,,-1.20,,, NC,, NC
CH3-3,2017-02-01T05:45:00Z,-79.12,54.04,7,21.87,,-1.21,,, NC,, NC
CH3-3,2017-02-01T06:00:00Z,-79.12,54.04,7,21.88,,-1.21,,, NC,, NC
CH3-3,2017-02-01T06:15:00Z,-79.12,54.04,7,21.92,,-1.20,,, NC,, NC
CH3-3,2017-02-01T06:30:00Z,-79.12,54.04,7,21.94,,-1.20,,, NC,, NC
CH3-3,2017-02-01T06:45:00Z,-79.12,54.04,7,21.90,,-1.20,,, NC,, NC
CH3-3,2017-02-01T07:00:00Z,-79.12,54.04,7,21.93,,-1.21,,, NC,, NC
CH3-3,2017-02-01T07:15:00Z,-79.12,54.04,7,21.89,,-1.20,,, NC,, NC
CH3-3,2017-02-01T07:30:00Z,-79.12,54.04,7,21.90,,-1.20,,, NC,, NC
CH3-3,2017-02-01T07:45:00Z,-79.12,54.04,7,21.88,,-1.21,,, NC,, NC
CH3-3,2017-02-01T08:00:00Z,-79.12,54.04,7,21.93,,-1.20,,, NC,, NC
CH3-3,2017-02-01T08:15:00Z,-79.12,54.04,7,21.92,,-1.20,,, NC,, NC
CH3-3,2017-02-01T08:30:00Z,-79.12,54.04,7,21.98,,-1.16,,, NC,, NC
CH3-3,2017-02-01T08:45:00Z,-79.12,54.04,7,22.00,,-1.15,,, NC,, NC
CH3-3,2017-02-01T09:00:00Z,-79.12,54.04,7,21.99,,-1.15,,, NC,, NC
CH3-3,2017-02-01T09:15:00Z,-79.12,54.04,7,22.02,,-1.15,,, NC,, NC
CH3-3,2017-02-01T09:30:00Z,-79.12,54.04,7,22.03,,-1.16,,, NC,, NC
CH3-3,2017-02-01T09:45:00Z,-79.12,54.04,7,21.99,,-1.18,,, NC,, NC
CH3-3,2017-02-01T10:00:00Z,-79.12,54.04,7,21.99,,-1.18,,, NC,, NC
CH3-3,2017-02-01T10:15:00Z,-79.12,54.04,7,21.98,,-1.16,,, NC,, NC
CH3-3,2017-02-01T10:30:00Z,-79.12,54.04,7,22.00,,-1.16,,, NC,, NC
CH3-3,2017-02-01T10:45:00Z,-79.12,54.04,7,22.01,,-1.16,,, NC,, NC
CH3-3,2017-02-01T11:00:00Z,-79.12,54.04,7,22.01,,-1.16,,, NC,, NC
CH3-3,2017-02-01T11:15:00Z,-79.12,54.04,7,21.98,,-1.19,,, NC,, NC
CH3-3,2017-02-01T11:30:00Z,-79.12,54.04,7,22.00,,-1.21,,, NC,, NC
CH3-3,2017-02-01T11:45:00Z,-79.12,54.04,7,21.94,,-1.21,,, NC,, NC
CH3-3,2017-02-01T12:00:00Z,-79.12,54.04,7,21.97,,-1.18,,, NC,, NC
CH3-3,2017-02-01T12:15:00Z,-79.12,54.04,7,21.92,,-1.15,,, NC,, NC
CH3-3,2017-02-01T12:30:00Z,-79.12,54.04,7,21.86,,-1.16,,, NC,, NC
CH3-3,2017-02-01T12:45:00Z,-79.12,54.04,7,21.81,,-1.20,,, NC,, NC
CH3-3,2017-02-01T13:00:00Z,-79.12,54.04,7,21.78,,-1.20,,, NC,, NC
CH3-3,2017-02-01T13:15:00Z,-79.12,54.04,7,21.73,,-1.20,,, NC,, NC
CH3-3,2017-02-01T13:30:00Z,-79.12,54.04,7,21.71,,-1.20,,, NC,, NC
CH3-3,2017-02-01T13:45:00Z,-79.12,54.04,7,21.71,,-1.20,,, NC,, NC
CH3-3,2017-02-01T14:00:00Z,-79.12,54.04,7,21.73,,-1.20,,, NC,, NC
CH3-3,2017-02-01T14:15:00Z,-79.12,54.04,7,21.52,,-1.19,,, NC,, NC
CH3-3,2017-02-01T14:30:00Z,-79.12,54.04,7,21.57,,-1.19,,, NC,, NC
CH3-3,2017-02-01T14:45:00Z,-79.12,54.04,7,21.55,,-1.19,,, NC,, NC
CH3-3,2017-02-01T15:00:00Z,-79.12,54.04,7,21.55,,-1.19,,, NC,, NC
CH3-3,2017-02-01T15:15:00Z,-79.12,54.04,7,21.64,,-1.19,,, NC,, NC
CH3-3,2017-02-01T15:30:00Z,-79.12,54.04,7,21.62,,-1.19,,, NC,, NC
CH3-3,2017-02-01T15:45:00Z,-79.12,54.04,7,21.65,,-1.19,,, NC,, NC
CH3-3,2017-02-01T16:00:00Z,-79.12,54.04,7,21.65,,-1.19,,, NC,, NC
CH3-3,2017-02-01T16:15:00Z,-79.12,54.04,7,21.69,,-1.20,,, NC,, NC
CH3-3,2017-02-01T16:30:00Z,-79.12,54.04,7,21.69,,-1.20,,, NC,, NC